www.pogodaiklimat.ru

Погода и климат >> Архив погоды >> Португалия >> Виана-ду-Каштелу


ПОГОДА в Виана-ду-Каштелу

  • Прогноз погоды в Виана-ду-Каштелу
  • Монитор погоды в Виана-ду-Каштелу

АРХИВ ПОГОДЫ в Виана-ду-Каштелу

Время (UTC), дата Ветер
(напр.,м/с)
 
Видим.   Явления Облачность Т
(С)
Тd
(С)
f
(%)
Тe
(С)
Тes
(С)
Комфортность P
(гПа)
Po
(гПа)
Тmin
(С)
Tmax
(С)
R
(мм)
R24
(мм)
S
(см)
03 15.04 штиль 0 н/о н/о +15.7 +14.4 92 +15 +15 1010.5 1004.8
06 15.04 штиль 0 н/о н/о +14.7 +13.9 95 +14 +14 1010.4 1004.7 +14.6
09 15.04 7000 м слаб. дождь н/о +12.9 +12.0 94 1012.0 1006.2 1
12 15.04 штиль 0 н/о н/о +15.3 +13.8 91 +15 +15 1013.8 1008.1
15 15.04 14 км н/о +16.1 +10.4 69 1015.4 1009.7
18 15.04 16 км н/о +14.6 +9.9 73 1017.1 1011.4 +16.5
21 15.04 штиль 0 н/о н/о +9.9 +9.0 94 +9 +9 1019.0 1013.2 5
00 16.04 штиль 0 н/о н/о +10.0 +9.8 99 +9 +9 1019.4 1013.6
03 16.04 штиль 0 н/о н/о +9.0 +8.7 98 +8 +8 1018.5 1012.7
06 16.04 штиль 0 н/о н/о +9.2 +8.2 93 +8 +8 1017.9 1012.0 +8.7
09 16.04 14 км н/о +14.8 +9.7 71 1017.7 1011.9
12 16.04 14 км н/о +16.8 +10.1 65 1016.3 1010.6
15 16.04 14 км н/о +17.1 +10.2 64 1013.7 1008.1
18 16.04 12 км н/о +14.7 +10.1 74 1011.9 1006.2 +18.5
21 16.04 штиль 0 н/о н/о +10.9 +8.9 87 +10 +10 1010.8 1005.0
00 17.04 штиль 0 н/о н/о +10.5 +8.9 90 +10 +10 1009.0 1003.2
03 17.04 штиль 0 н/о н/о +12.2 +7.7 74 +12 +12 1006.9 1001.2
06 17.04 штиль 0 н/о н/о +13.3 +8.6 73 +13 +13 1006.7 1001.0 +10.5
09 17.04 штиль 0 н/о н/о +13.3 +9.8 79 +13 +13 1006.8 1001.1 0.1
12 17.04 8000 м слаб. дождь н/о +13.7 +12.6 93 1006.9 1001.1 0.9
15 17.04 8000 м слаб. дождь н/о +13.6 +12.8 95 1006.8 1001.1 0.4
18 17.04 12 км в посл. час дождь н/о +14.2 +12.8 91 1007.3 1001.6 +14.3
21 17.04 штиль 0 н/о н/о +13.1 +11.5 90 +13 +13 1008.8 1003.1 7
00 18.04 штиль 0 н/о н/о +12.3 +11.6 95 +12 +12 1010.0 1004.3 1
03 18.04 штиль 0 н/о н/о +11.3 +10.6 95 +11 +11 1010.2 1004.4 0.3
06 18.04 штиль 0 н/о н/о +11.0 +10.6 97 +10 +10 1011.4 1005.6 +10.4
09 18.04 16 км {ливн. осадки} н/о +14.9 +12.1 83 1012.7 1007.0
12 18.04 18 км {ливн. осадки} н/о +16.4 +11.2 71 1013.2 1007.5
15 18.04 18 км н/о +16.4 +12.5 78 1012.9 1007.2
18 18.04 16 км н/о +15.0 +11.7 81 1013.8 1008.1 +18.0
21 18.04 штиль 0 н/о н/о +12.8 +11.1 89 +12 +12 1015.7 1009.9
00 19.04 штиль 0 н/о н/о +11.6 +10.8 95 +11 +11 1015.4 1009.6
03 19.04 штиль 0 н/о н/о +11.9 +10.2 89 +11 +11 1014.2 1008.5
06 19.04 штиль 0 н/о н/о +11.5 +10.4 93 +11 +11 1014.4 1008.7 +10.7
09 19.04 штиль 0 н/о н/о +14.7 +12.4 86 +14 +14 1015.4 1009.6 0.2
12 19.04 штиль 0 н/о н/о +18.8 +10.9 60 +19 +19 1016.4 1010.8
15 19.04 штиль 0 н/о н/о +19.5 +12.6 64 +21 +21 комфорт 1016.3 1010.7
18 19.04 штиль 0 н/о н/о +18.2 +13.8 75 +18 +18 1016.7 1011.0 +22.8
21 19.04 штиль 0 н/о н/о +18.2 +9.7 58 +18 +18 1019.5 1013.8
00 20.04 штиль 0 н/о н/о +15.4 +11.1 76 +15 +15 1020.0 1014.2
03 20.04 штиль 0 н/о н/о +13.0 +10.6 85 +13 +13 1019.6 1013.8
06 20.04 штиль 0 н/о н/о +12.6 +9.4 81 +12 +12 1018.9 1013.1 +11.8
09 20.04 штиль 0 н/о н/о +19.3 +11.3 60 +20 +20 1018.7 1013.0
12 20.04 штиль 0 н/о н/о +21.3 +12.5 57 +24 +24 комфорт 1017.4 1011.8
15 20.04 штиль 0 н/о н/о +23.3 +12.0 49 +26 +26 жарко 1015.7 1010.1
18 20.04 штиль 0 н/о н/о +19.1 +13.6 70 +20 +20 1013.7 1008.0 +24.1
21 20.04 штиль 0 н/о н/о +20.4 +9.0 48 +21 +21 комфорт 1014.4 1008.8
00 21.04 штиль 0 н/о н/о +18.0 +8.5 54 +18 +18 1014.2 1008.5
03 21.04 штиль 0 н/о н/о +14.1 +8.4 69 +14 +14 1014.1 1008.4
06 21.04 штиль 0 н/о н/о +11.6 +7.9 78 +11 +11 1014.6 1008.8 +11.6
09 21.04 штиль 0 н/о н/о +19.9 +10.2 54 +21 +21 комфорт 1014.6 1008.9
12 21.04 штиль 0 н/о н/о +20.4 +10.0 51 +22 +22 комфорт 1012.8 1007.2
15 21.04 штиль 0 н/о н/о +19.5 +12.2 63 +21 +21 комфорт 1009.9 1004.3
18 21.04 штиль 0 н/о н/о +19.9 +12.1 61 +21 +21 комфорт 1008.3 1002.7 +22.8
21 21.04 штиль 0 н/о н/о +18.0 +9.5 58 +18 +18 1008.7 1003.0

 

Местоположение метеостанции Виана-ду-Каштелу (Португалия): широта 41.63 долгота -8.80 высота над уровнем моря 48 м.

В архиве по умолчанию представлена погода в Виана-ду-Каштелу за последнюю неделю. Архивные данные за месяц целиком и за предыдущие месяцы, начиная с января 2011 года, Вы можете получить, выбрав интересующий диапазон дат из раскрывающегося списка и нажав кнопку "Ввод!".


*Определитесь, кто Вы:
робот инопланетянин человек

Внимание! Время в таблицах - всемирное. Для получения местного времени необходимо прибавить поправку, которая равна 0 ч.

Смотрите также архив погоды в соседних городах и на ближайших метеорологических станциях:

Погода в Порту (Португалия) (46 км)
Погода в Виго (Испания) (68 км)
Погода в Оваре (Португалия) (80 км)
Погода в Понтеведре (Испания) (90 км)
Погода в Вила-Реале (Португалия) (99 км)
Погода в Хинсо-де-Лимии (Испания) (102 км)
Погода в Карбальино (Испания) (106 км)
Погода в Оренсе (Испания) (109 км)
Погода в Падроне (Испания) (124 км)
Погода в Визеу (Португалия) (127 км)

Пояснения к столбцам:

Ветер - указаны скорость ветра в м/с - средняя за 10 мин, порывы в срок и между сроками (в фигурных скобках) и направление, откуда дует ветер: С - северный, СВ - северо-восточный, В - восточный, ЮВ - юго-восточный, Ю - южный, ЮЗ - юго-западный, З - западный, СЗ - северо-западный.
Видимость - горизонтальная дальность видимости в метрах или километрах. При видимости от 1 до 10 км при отсутствии осадков обычно наблюдается дымка, при ухудшении видимости до 1 км и менее - туман. В сухую погоду видимость может ухудшаться дымом, пылью или мглою.
Явления - указаны атмосферные явления, наблюдавшиеся в срок или в последний час перед сроком; фигурными скобками обозначены явления, наблюдавшиеся между сроками (за 1-3 часа до срока); квадратными скобками обозначены град или гололедные отложения с указанием их диаметра в мм.
Облачность - указаны через наклонную черту общая и нижняя облачность в баллах и высота нижней границы облаков в метрах; квадратными скобками обозначены формы облаков: Ci - перистые, Cs - перисто-слоистые, Cc - перисто-кучевые, Ac - высококучевые, As - высокослоистые, Sc - слоисто-кучевые, Ns - слоисто-дождевые, Cu - кучевые, Cb - кучево-дождевые. Подробнее классификацию облаков см. в Атласе облаков (PDF).
T - Температура воздуха - температура, измеренная на высоте 2 м над землей.
Td - Температура точки росы - температура, при понижении до которой содержащийся в воздухе водяной пар достигнет насыщения.
f - Относительная влажность воздуха - влажноcть воздуха, измеренная на высоте 2 м над землей.
Te - Эффективная температура - температура, которую ощущает одетый по сезону человек в тени. Характеристика душности погоды. При расчете учитывается влияние влажности воздуха и скорости ветра на теплоощущения человека.
Tes - Эффективная температура на солнце - температура, которую ощущает человек, с поправкой на солнечный нагрев. Характеристика знойности погоды. Зависит от высоты солнца над горизонтом, облачности и скорости ветра. Ночью, в пасмурную погоду, а также при ветре 12 м/с и более поправка равна нулю.
P - Атмосферное давление - приведенное к уровню моря атмосферное давление.
Po - Атмосферное давление - измеренное на уровне метеостанции атмосферное давление.
Tmin - Минимальная температура - минимум температуры воздуха на высоте 2 м над землей.
Tmax - Максимальная температура - максимум температуры воздуха на высоте 2 м над землей.
R - Количество осадков - Количество выпавших осадков за период времени, мм. При наведении курсора мыши на число - период времени, за который выпало указанное количество осадков.
R24 - Количество осадков - Количество выпавших осадков за 24 часа, мм.
S - Снежный покров - Высота снежного покрова, см. При наведении курсора мыши на число - состояние снежного покрова и степень покрытия местности в баллах.